MPEC 2007-V27 : 2007 VN3

The following Minor Planet Electronic Circular may be linked-to from your own Web pages, but must not otherwise be redistributed electronically.


Read MPEC 2007-V26 Read MPEC 2007-V28


M.P.E.C. 2007-V27                                Issued 2007 Nov. 4, 20:52 UT

     The Minor Planet Electronic Circulars contain information on unusual
         minor planets and routine data on comets.  They are published
   on behalf of Commission 20 of the International Astronomical Union by the
          Minor Planet Center, Smithsonian Astrophysical Observatory,
                          Cambridge, MA 02138, U.S.A.

             Prepared using the Tamkin Foundation Computer Network

                              MPC@CFA.HARVARD.EDU
          URL http://www.cfa.harvard.edu/iau/mpc.html  ISSN 1523-6714

                                   2007 VN3

Observations:
     K07V03N* C2007 11 03.10733 22 38 11.18 +12 06 49.7          19.1 V EV027703
     K07V03N  C2007 11 03.11381 22 38 13.66 +12 07 35.9          19.9 V EV027703
     K07V03N  C2007 11 03.12030 22 38 16.29 +12 08 21.1          19.9 V EV027703
     K07V03N  C2007 11 03.12682 22 38 18.99 +12 09 08.4          18.6 V EV027703
     K07V03N  C2007 11 03.15263 22 38 29.00 +12 12 08.7          19.5 V EV027703
     K07V03N  C2007 11 03.15988 22 38 31.88 +12 13 00.4          19.7 V EV027703
     K07V03N  C2007 11 03.16716 22 38 34.76 +12 13 52.5          19.4 V EV027703
     K07V03N  C2007 11 03.17440 22 38 37.60 +12 14 42.2          20.1 V EV027703
     K07V03N  C2007 11 03.23485 22 39 01.45 +12 21 44.9          19.2 R EV027651
     K07V03N  C2007 11 03.23722 22 39 02.39 +12 22 00.8          19.2 R EV027651
     K07V03N  C2007 11 03.23808 22 39 02.71 +12 22 06.9          19.3 R EV027651
     K07V03N  C2007 11 03.79411 22 42 49.97 +13 25 20.7          19.4 R EV027143
     K07V03N  C2007 11 03.80209 22 42 53.06 +13 26 14.5          19.4 R EV027143
     K07V03N  C2007 11 03.83086 22 43 03.97 +13 29 27.1          19.7 V EV027595
     K07V03N  C2007 11 03.83798 22 43 06.71 +13 30 14.3          19.9 V EV027595
     K07V03N  C2007 11 03.84529 22 43 09.54 +13 31 02.7          20.2 V EV027595
     K07V03N  C2007 11 03.91666 22 43 37.11 +13 38 55.1          19.1 V EV027473
     K07V03N  C2007 11 03.93601 22 43 45.23 +13 41 00.5                 EV027J95
     K07V03N IC2007 11 03.93946 22 43 46.59 +13 41 23.3          19.6 R EV027J95
     K07V03N  C2007 11 04.12521 22 45 01.65 +14 02 00.2          19.6 V EV027G96
     K07V03N  C2007 11 04.12574 22 45 01.87 +14 02 03.6          19.6 V EV027G96
     K07V03N  C2007 11 04.12627 22 45 02.08 +14 02 07.4          19.6 V EV027G96
     K07V03N  C2007 11 04.12681 22 45 02.26 +14 02 10.8          19.4 V EV027G96
     K07V03N 5C2007 11 04.15914 22 45 14.77 +14 05 40.0          19.6 R EV027673
     K07V03N 5C2007 11 04.16495 22 45 17.00 +14 06 18.5                 EV027673
     K07V03N 5C2007 11 04.16921 22 45 18.61 +14 06 45.7                 EV027673
     K07V03N 5C2007 11 04.17431 22 45 20.48 +14 07 19.2                 EV027673
     K07V03N tC2007 11 04.19838 22 45 29.21 +14 09 56.3          19.5 V EV027291
     K07V03N tC2007 11 04.20223 22 45 30.72 +14 10 21.0          20.0 V EV027291
     K07V03N tC2007 11 04.20608 22 45 32.14 +14 10 45.7          20.0 V EV027291

Observer details:
143 Gnosca.  Observer S. Sposetti.  0.40-m f/4 reflector + CCD.
291 LPL/Spacewatch II.  Observer M. T. Read.  1.8-m f/2.7 reflector + CCD.
473 Remanzacco.  Observers L. Donato, M. Gonano, V. Gonano, E. Guido,
    V. Santini, G. Sostero.  0.45-m f/4.4 Newtonian reflector + CCD.
595 Farra d'Isonzo.  Observers L. Bittesini, G. Lombardi, E. Pettarin,
    F. Piani.  Measurer L. Bittesini.  0.40-m f/4.5 reflector + CCD.
651 Grasslands Observatory, Tucson.  Observer J. E. McGaha.  0.62-m f/5.1
    Newtonian reflector + CCD.
673 Table Mountain Observatory, Wrightwood.  Observer J. Young.  0.61-m f/16
    Cassegrain + CCD.
703 Catalina Sky Survey.  Observer E. C. Beshore.  Measurers E. C. Beshore,
    A. Boattini, G. J. Garradd, A. R. Gibbs, A. D. Grauer, R. E. Hill,
    R. A. Kowalski, S. M. Larson, R. H. McNaught.  0.68-m Schmidt + CCD.
G96 Mt. Lemmon Survey.  Observer A. Boattini.  Measurers E. C. Beshore,
    A. Boattini, G. J. Garradd, A. R. Gibbs, A. D. Grauer, R. E. Hill,
    R. A. Kowalski, S. M. Larson, R. H. McNaught.  1.5-m reflector + CCD.
J95 Great Shefford.  Observer P. Birtwhistle.  0.40-m f/6.0 Schmidt-Cassegrain
    + CCD.

Orbital elements:
2007 VN3                                            PHA, Earth MOID = 0.0275 AU
Epoch 2007 Oct. 27.0 TT = JDT 2454400.5                 MPC
M  10.76252              (2000.0)            P               Q
n   0.30259693     Peri.  319.61695     +0.94190664     +0.32036653
a   2.1973186      Node    22.32526     -0.19620867     +0.76860736
e   0.5693589      Incl.   15.40105     -0.27260601     +0.55372196
P   3.26           H   21.4           G   0.15           U   8
Residuals in seconds of arc
071103 703  0.0   0.5-    071103 651  0.1-  0.1-    071104 G96  0.1+  0.2-
071103 703  1.2-  0.1-    071103 143  0.5-  0.2-    071104 G96  0.2+  0.2+
071103 703  0.1-  0.7-    071103 143  0.3-  0.2+    071104 G96  0.1-  0.1+
071103 703  1.8+  0.7+    071103 595  0.2-  0.5+    071104 673  0.2-  0.1+
071103 703  0.5-  0.6-    071103 595  0.2-  0.3+    071104 673  0.5+  0.8+
071103 703  0.1-  0.1+    071103 595  0.1-  0.0     071104 673  0.6+  0.3+
071103 703  0.1+  1.2+    071103 473  0.4-  0.2-    071104 673  0.2-  0.7+
071103 703  0.1-  0.1+    071103 J95  0.1+  0.2-    071104 291  0.5-  0.1+
071103 651  0.2+  0.3+    071103 J95  0.4+  0.1-    071104 291  0.3+  0.1-
071103 651  0.2+  0.3-    071104 G96  0.2-  0.1-    071104 291  0.1-  0.3-

Ephemeris:
2007 VN3                 a,e,i = 2.20, 0.57, 15                  q = 0.9463
Date    TT    R. A. (2000) Decl.     Delta      r     Elong.  Phase     V
2007 10 27    21 40.51   -05 39.4    0.140    1.055   112.2    60.7    19.4
2007 11 01    22 22.97   +07 39.0    0.161    1.084   120.9    51.8    19.5
2007 11 06    22 56.86   +17 11.8    0.193    1.116   126.1    45.9    19.8
2007 11 11    23 24.29   +23 38.1    0.232    1.150   128.8    42.2    20.2
2007 11 16    23 47.07   +27 57.4    0.276    1.185   129.9    39.8    20.5
2007 11 21    00 06.54   +30 54.2    0.323    1.222   130.2    38.2    20.9
2007 11 26    00 23.66   +32 56.7    0.374    1.259   129.8    37.0    21.3
2007 12 01    00 39.06   +34 22.8    0.427    1.298   129.0    36.2    21.6
2007 12 06    00 53.26   +35 23.9    0.483    1.337   127.8    35.6    21.9

Gareth V. Williams           (C) Copyright 2007 MPC           M.P.E.C. 2007-V27

Read MPEC 2007-V26 Read MPEC 2007-V28


Our Web policy. Index to the CBAT/MPC/ICQ pages.

MPC

Valid HTML 4.01!